User: anonymous   Login
Location: Brno
(49.2000°N, 16.6330°E)
Time: 08:30:14
(UTC+01:00)
Language:

Meteor 1-4 Rocket - Orbit

View from above orbital plane
View from above orbital plane
View from above satellite
View from above satellite

Ground track
Ground track

The orbit data is extracted from the following two-line orbital elements,

1 04394U 70037B   15054.86198475  .00007494  00000-0  30490-3 0  9993
2 04394 081.2432 283.4815 0046230 118.5291 242.0608 15.23359307435984
Epoch (UTC): 23 February 2015 20:41:15
Eccentricity: 0.0046230
inclination: 81.2432°
perigee height: 464 km
apogee height: 527 km
right ascension of ascending node: 283.4815°
argument of perigee: 118.5291°
revolutions per day: 15.23359307
mean anomaly at epoch: 242.0608°
orbit number at epoch: 43598

The dashed part of the orbit path shows where the satellite is in the earth's shadow,  

DLR